[[{"header":{"parameterUnit":"m.s-1","parameterCategory":1,"la1":30.2991,"la2":30.254,"lo1":-89.0895,"lo2":-89.0444,"dy":0.0017,"dx":0.0017,"nx":28,"ny":28,"refTime":"2025-02-11T09:00:00:Z","depth":0,"parameterNumber":2,"parameterNumberName":"U-component_of_WINDS"},"data":[0,0,0,0,0,0,0,0,0,0,0,0,0,0,0,0,0,0,0,0,0,0,0,0,0,0,0,0,0,0,0,0,0,0,0,0,0,0,0,0,0,0,0,0,0,0,0,0,0,0,0,0,0,0,0,0,0,0,-1.0674,-1.0673,0,-1.0598,-1.0597,-1.0596,-1.0585,-1.0586,-1.0587,-1.0587,-1.0504,-1.0501,-1.0499,0,0,0,0,0,0,0,0,0,0,0,0,0,-1.0806,-1.0804,-1.0674,-1.0673,-1.0672,-1.0598,-1.0597,-1.0596,-1.0585,-1.0586,-1.0587,-1.0588,-1.0505,-1.0502,-1.0498,0,0,0,0,0,0,0,0,0,0,0,0,0,-1.0741,-1.0803,-1.0674,-1.0658,-1.0656,-1.0598,-1.0597,-1.0595,-1.0585,-1.0586,-1.0587,-1.0588,-1.0506,-1.0502,-1.0498,-1.0449,0,0,-1.0485,-1.0483,0,0,0,0,0,0,0,0,-1.0745,-1.0736,-1.0662,-1.0659,-1.0657,-1.0602,-1.0613,-1.0546,-1.0585,-1.0612,-1.0587,-1.0589,-1.0536,-1.0529,-1.0512,-1.0445,-1.0442,-1.0484,-1.0482,-1.048,-1.0478,0,0,0,0,0,0,0,-1.0749,-1.0739,-1.0644,-1.066,-1.0657,-1.0653,-1.0645,-1.06,-1.0568,-1.0609,-1.0609,-1.06,-1.0534,-1.0516,-1.051,-1.044,-1.0484,-1.048,-1.0478,-1.0476,-1.0328,-1.0327,0,0,0,0,0,0,-1.0757,-1.0743,-1.0646,-1.0641,-1.0704,-1.065,-1.0641,-1.0618,-1.0569,-1.0562,-1.0599,-1.06,-1.0523,-1.0515,-1.0507,-1.0445,-1.048,-1.0476,-1.0473,-1.0329,-1.0328,-1.0326,0,0,0,0,0,0,-1.076,-1.0749,-1.0649,-1.0692,-1.0679,-1.0646,-1.0621,-1.0616,-1.0598,-1.0561,-1.0555,-1.0587,-1.0524,-1.0513,-1.0464,-1.0442,-1.0474,-1.047,-1.0331,-1.0329,-1.0327,-1.0323,0,0,0,0,0,0,-1.0764,-1.075,-1.0733,-1.0692,-1.0677,-1.0609,-1.062,-1.0614,-1.0591,-1.0591,-1.0548,-1.0541,-1.0524,-1.047,-1.0459,-1.0437,-1.0466,-1.0333,-1.033,-1.0328,-1.0325,-1.0321,-1.0318,0,0,0,0,0,-1.0769,-1.0734,-1.0732,-1.072,-1.0655,-1.0608,-1.0599,-1.0581,-1.059,-1.0571,-1.0547,-1.0543,-1.0447,-1.0465,-1.0453,-1.0429,-1.0334,-1.0331,-1.0328,-1.0326,-1.0322,-1.0318,0,0,0,0,0,0,-1.0772,-1.0728,-1.0725,-1.0677,-1.0646,-1.0606,-1.0582,-1.0577,-1.0542,-1.0543,-1.052,-1.051,-1.0461,-1.044,-1.0461,-1.0378,-1.0391,-1.0385,-1.0394,-1.0389,-1.0386,-1.0391,-1.0463,0,0,0,0,0,-1.0767,-1.0734,-1.0697,-1.0657,-1.0642,-1.0615,-1.0593,-1.0582,-1.0549,-1.0535,-1.0508,-1.0474,-1.0436,-1.0412,-1.0375,-1.0322,-1.0311,-1.0299,-1.0296,-1.0293,-1.0288,-1.0257,-1.0251,-1.0316,-1.0316,-1.0316,0,0,-1.0756,-1.0728,-1.0708,-1.0657,-1.0632,-1.0597,-1.0604,-1.0566,-1.0539,-1.0529,-1.0481,-1.0459,-1.042,-1.0368,-1.0344,-1.0349,-1.0268,-1.0289,-1.0288,-1.0284,-1.0253,-1.0247,-1.0241,-1.0314,-1.0315,-1.0315,0,0,-1.0718,-1.0694,-1.0658,-1.0633,-1.0595,-1.0577,-1.0568,-1.0529,-1.0514,-1.0466,-1.0457,-1.0424,-1.0359,-1.0332,-1.0309,-1.0259,-1.0254,-1.0248,-1.0229,-1.0199,-1.0194,-1.0189,-1.017,-1.0164,-1.0243,-1.0243,-1.0243,0,-1.0709,-1.0657,-1.0639,-1.0602,-1.0579,-1.057,-1.0531,-1.0507,-1.0459,-1.0442,-1.0449,-1.0368,-1.0341,-1.0282,-1.0269,-1.0252,-1.024,-1.0252,-1.0196,-1.0191,-1.0187,-1.0168,-1.0161,-1.0243,-1.0243,-1.0243,-1.0243,0,-1.0646,-1.061,-1.0585,-1.0539,-1.0513,-1.0476,-1.0451,-1.0427,-1.0417,-1.0398,-1.0347,-1.0315,-1.0271,-1.0256,-1.0246,-1.0194,-1.0199,-1.0201,-1.0213,-1.018,-1.0162,-1.0155,-1.0242,-1.0242,-1.0242,-1.0243,0,0,-1.0608,-1.0553,-1.0544,-1.0523,-1.048,-1.0451,-1.0412,-1.037,-1.0348,-1.0315,-1.0281,-1.0226,-1.0228,-1.0203,-1.0189,-1.0163,-1.0124,-1.0168,-1.0167,-1.016,-1.0063,-1.0061,-1.0053,-1.012,-1.0119,-1.0118,-1.0066,0,-1.0564,-1.0496,-1.0478,-1.0419,-1.0384,-1.0375,-1.034,-1.031,-1.029,-1.0256,-1.0234,-1.0195,-1.0202,-1.0186,-1.0159,-1.0134,-1.0104,-1.0138,-1.0086,-1.0084,-1.0095,-1.0044,-1.0041,-0.9994,-1.0059,-1.0058,-1.0057,0,-1.0503,-1.047,-1.0407,-1.0368,-1.0353,-1.0322,-1.0282,-1.025,-1.0214,-1.0202,-1.0173,-1.0162,-1.0119,-1.0134,-1.0074,-1.0097,-1.0075,-1.006,-1.0057,-1.0051,-1.0068,-1.0034,-0.9978,-0.9971,-1.0046,-1.0047,-1.0048,0,-1.048,-1.0419,-1.0373,-1.0355,-1.0309,-1.0287,-1.0266,-1.0232,-1.0207,-1.0171,-1.0155,-1.0114,-1.0091,-1.0059,-1.0037,-1.005,-0.9978,-0.9991,-0.9964,-0.9965,-0.9949,-0.995,-0.9887,-0.9937,-0.9937,-0.9937,-0.9937,0,-1.0432,-1.0394,-1.0362,-1.0334,-1.029,-1.027,-1.0227,-1.0206,-1.0175,-1.0141,-1.013,-1.0098,-1.0071,-1.0035,-1.0018,-0.9969,-0.9959,-0.9947,-0.9942,-0.9947,-0.9948,-0.9931,-0.9933,-0.9935,-0.9935,-0.9936,-0.9936,0,-1.0398,-1.0375,-1.0325,-1.0285,-1.0273,-1.0243,-1.0208,-1.0179,-1.0159,-1.0116,-1.0105,-1.0073,-1.003,-1.0005,-0.9951,-0.9939,-0.9885,-0.9883,-0.9897,-0.9895,-0.9869,-0.9871,-0.9792,-0.978,-0.9839,-0.9839,-0.9838,0,-1.0368,-1.0339,-1.0295,-1.0273,-1.0252,-1.0215,-1.019,-1.0168,-1.0142,-1.0099,-1.0075,-1.0031,-0.9996,-0.9927,-0.9898,-0.9856,-0.9852,-0.9827,-0.9845,-0.985,-0.9849,-0.9851,-0.9847,-0.9823,-0.9823,-0.9822,-0.9822,0,-1.0318,-1.0308,-1.0273,-1.0233,-1.0203,-1.0171,-1.0139,-1.012,-1.0093,-1.0064,-1.0021,-0.9993,-0.9937,-0.9894,-0.9849,-0.9826,-0.9818,-0.9816,-0.9808,-0.9812,-0.9821,-0.9814,-0.9887,-0.9818,-0.9818,-0.9819,-0.9819,-0.9819,-1.0284,-1.0257,-1.0222,-1.0182,-1.0156,-1.0126,-1.0096,-1.0073,-1.0037,-0.999,-0.998,-0.9933,-0.9896,-0.9836,-0.9812,-0.9774,-0.9778,-0.9766,-0.9763,-0.976,-0.9758,-0.9828,-0.9766,-0.9766,-0.9766,-0.9766,-0.9766,0,-1.0232,-1.0208,-1.0173,-1.0128,-1.0096,-1.0094,-1.0057,-1.0031,-0.999,-0.9957,-0.9922,-0.9871,-0.9829,-0.9796,-0.9752,-0.9728,-0.9724,-0.9717,-0.9718,-0.9713,-0.9758,-0.9769,-0.9722,-0.9722,-0.9722,-0.9722,-0.9722,-0.9722,-1.0201,-1.0154,-1.0139,-1.0079,-1.0055,-1.0011,-0.999,-0.9961,-0.9934,-0.9878,-0.9843,-0.9823,-0.9789,-0.9742,-0.9703,-0.9694,-0.9678,-0.9672,-0.9662,-0.9705,-0.971,-0.9714,-0.9725,-0.9669,-0.9669,-0.962,-0.962,-0.9619]},{"header":{"parameterUnit":"m.s-1","parameterCategory":1,"la1":30.2991,"la2":30.254,"lo1":-89.0895,"lo2":-89.0444,"dy":0.0017,"dx":0.0017,"nx":28,"ny":28,"refTime":"2025-02-11T09:00:00:Z","depth":0,"parameterNumber":3,"parameterNumberName":"V-component_of_WINDS"},"data":[0,0,0,0,0,0,0,0,0,0,0,0,0,0,0,0,0,0,0,0,0,0,0,0,0,0,0,0,0,0,0,0,0,0,0,0,0,0,0,0,0,0,0,0,0,0,0,0,0,0,0,0,0,0,0,0,0,0,6.545,6.5453,0,6.5711,6.5713,6.5716,6.5793,6.5791,6.579,6.5788,6.6054,6.6062,6.6071,0,0,0,0,0,0,0,0,0,0,0,0,0,6.5019,6.5027,6.545,6.5453,6.5457,6.571,6.5714,6.5717,6.5793,6.5791,6.5789,6.5788,6.6051,6.6061,6.6071,0,0,0,0,0,0,0,0,0,0,0,0,0,6.5236,6.5029,6.545,6.5525,6.5534,6.5709,6.5714,6.5718,6.5793,6.5791,6.5789,6.5787,6.6048,6.606,6.6073,6.6191,0,0,6.6111,6.6116,0,0,0,0,0,0,0,0,6.5223,6.5251,6.5511,6.552,6.5531,6.5717,6.5659,6.5877,6.5794,6.5695,6.5788,6.5786,6.5944,6.5965,6.6018,6.6204,6.6215,6.6112,6.612,6.6125,6.6129,0,0,0,0,0,0,0,6.5208,6.5241,6.5553,6.5514,6.5527,6.5546,6.5574,6.5701,6.5828,6.5703,6.5709,6.5739,6.5949,6.6006,6.6025,6.6219,6.6112,6.6123,6.6131,6.6136,6.6518,6.6521,0,0,0,0,0,0,6.518,6.5228,6.5545,6.5561,6.5369,6.5555,6.5587,6.5659,6.5826,6.585,6.5741,6.5742,6.5985,6.601,6.6034,6.6187,6.6125,6.6137,6.6144,6.6516,6.6519,6.6522,0,0,0,0,0,0,6.5171,6.5208,6.5534,6.5396,6.5439,6.5565,6.5645,6.5665,6.5723,6.5855,6.5878,6.5776,6.5985,6.6017,6.6153,6.6197,6.6142,6.6154,6.6512,6.6517,6.652,6.6491,0,0,0,0,0,0,6.5158,6.5204,6.525,6.5397,6.5446,6.5648,6.5648,6.5672,6.5744,6.5748,6.5894,6.5916,6.5985,6.6133,6.6165,6.6213,6.6164,6.6509,6.6514,6.6519,6.6488,6.6493,6.6497,0,0,0,0,0,6.5142,6.5231,6.5252,6.529,6.5507,6.565,6.5679,6.5758,6.5747,6.5795,6.588,6.5911,6.6186,6.6147,6.6183,6.6236,6.6507,6.6513,6.6519,6.6486,6.6492,6.6497,0,0,0,0,0,0,6.5085,6.5251,6.5277,6.5415,6.5518,6.5663,6.5726,6.5761,6.5869,6.5868,6.5961,6.5993,6.6123,6.6192,6.6145,6.6361,6.6348,6.6361,6.6311,6.6317,6.6322,6.6303,6.6174,0,0,0,0,0,6.5089,6.5192,6.5331,6.5439,6.549,6.5599,6.5664,6.5716,6.5826,6.587,6.5965,6.6071,6.6182,6.6253,6.6362,6.6498,6.6532,6.6552,6.6557,6.656,6.6571,6.6651,6.6662,6.6541,6.6541,6.6541,0,0,6.5097,6.5201,6.526,6.5431,6.5517,6.5622,6.5635,6.5745,6.5825,6.5887,6.6022,6.6095,6.622,6.6357,6.6422,6.6419,6.6612,6.6567,6.6569,6.6579,6.6658,6.667,6.668,6.6545,6.6545,6.6544,0,0,6.5167,6.5254,6.5356,6.5442,6.5573,6.5645,6.5669,6.5809,6.5861,6.5997,6.6047,6.6143,6.6331,6.6418,6.6487,6.6592,6.6625,6.6624,6.6649,6.6725,6.6735,6.6744,6.6784,6.6797,6.6634,6.6634,6.6634,0,6.5161,6.5322,6.5403,6.5513,6.5587,6.5649,6.5754,6.5833,6.5992,6.6042,6.6036,6.6276,6.6363,6.6523,6.6549,6.6601,6.6634,6.6609,6.6727,6.6737,6.6746,6.6786,6.68,6.6634,6.6634,6.6634,6.6634,0,6.531,6.542,6.5487,6.564,6.5722,6.5827,6.5926,6.5999,6.6043,6.6116,6.6256,6.6363,6.6496,6.6537,6.6581,6.6704,6.6699,6.6708,6.6698,6.6756,6.6795,6.681,6.6633,6.6633,6.6633,6.6633,0,0,6.5352,6.555,6.5573,6.5645,6.5794,6.5881,6.599,6.6121,6.6183,6.629,6.6385,6.6543,6.6554,6.6632,6.6687,6.6754,6.6833,6.6756,6.676,6.6769,6.6978,6.6972,6.6987,6.6855,6.6858,6.686,6.6968,0,6.5443,6.5641,6.5718,6.588,6.5985,6.6045,6.614,6.6242,6.6313,6.6412,6.649,6.6602,6.6606,6.6654,6.6723,6.6808,6.6876,6.6801,6.6946,6.695,6.6916,6.7007,6.7001,6.7098,6.6984,6.6986,6.6988,0,6.5576,6.5686,6.5858,6.5997,6.6044,6.6128,6.6256,6.6349,6.6466,6.6513,6.6601,6.6651,6.6769,6.6749,6.6913,6.686,6.6923,6.6974,6.698,6.6999,6.6974,6.7031,6.713,6.7146,6.7012,6.701,6.7008,0,6.5593,6.5784,6.5913,6.5972,6.6136,6.6194,6.6265,6.638,6.6454,6.6565,6.6615,6.6737,6.6805,6.6898,6.6981,6.6958,6.7139,6.7125,6.7182,6.718,6.722,6.7217,6.7333,6.7255,6.7255,6.7255,6.7254,0,6.5688,6.5792,6.5924,6.6003,6.6122,6.6209,6.6324,6.6399,6.6501,6.6596,6.6655,6.6743,6.6846,6.6947,6.7012,6.714,6.7169,6.7211,6.7228,6.7208,6.7203,6.7253,6.725,6.7259,6.7258,6.7257,6.7256,0,6.5729,6.5821,6.5966,6.6109,6.6148,6.6229,6.6352,6.6432,6.6505,6.6625,6.6658,6.6773,6.6897,6.6988,6.7146,6.719,6.7327,6.7342,6.7288,6.7297,6.7351,6.7346,6.7506,6.7533,6.7433,6.7434,6.7435,0,6.5785,6.5867,6.602,6.6088,6.6159,6.6268,6.6345,6.6434,6.6512,6.6652,6.6716,6.6843,6.695,6.7143,6.7241,6.7363,6.7384,6.7432,6.7403,6.7381,6.7389,6.7384,6.7394,6.7436,6.7437,6.7437,6.7438,0,6.5876,6.5918,6.6027,6.6153,6.6243,6.6345,6.6449,6.6502,6.6609,6.6693,6.6821,6.6903,6.7066,6.7192,6.7324,6.7398,6.7437,6.7446,6.7466,6.7448,6.7415,6.7437,6.7302,6.7442,6.7442,6.7442,6.7441,6.7441,6.5929,6.6006,6.6126,6.6246,6.6333,6.6429,6.6512,6.6596,6.6704,6.6844,6.689,6.7022,6.7138,6.732,6.7394,6.7499,6.7499,6.7527,6.7535,6.7542,6.7542,6.7395,6.7523,6.7523,6.7523,6.7523,6.7523,0,6.6026,6.6107,6.6216,6.636,6.6455,6.6483,6.6599,6.6677,6.6792,6.6898,6.7002,6.7149,6.7272,6.7379,6.7507,6.757,6.7592,6.7601,6.7599,6.7616,6.7533,6.7505,6.7582,6.7582,6.7582,6.7582,6.7582,6.7582,6.6088,6.6221,6.6277,6.6453,6.6533,6.6663,6.6728,6.6817,6.6902,6.7064,6.7167,6.7236,6.7343,6.7479,6.7594,6.7622,6.7668,6.7674,6.7707,6.7628,6.7621,6.7615,6.7588,6.7682,6.7682,6.7781,6.7782,6.7783]}]]